Location: Demmingen
(48.6757°N, 10.4375°E)
Time: 18:22:28
(UTC+00:00)

Sep Motor Cover - Visible Passes

Search period start: 07 October 2024 00:00
Search period end: 17 October 2024 00:00
Orbit: 616 x 787 km, 98.0° (Epoch: 06 October)

Date Brightness Start Highest point End Pass type
(mag) Time Alt. Az. Time Alt. Az. Time Alt. Az.
07 Oct ? 18:05:13 10° S 18:10:22 60° W 18:15:29 10° NNW visible
08 Oct ? 17:10:10 10° SE 17:15:11 49° ENE 17:20:07 10° N visible
08 Oct ? 18:48:44 10° SSW 18:53:06 27° W 18:57:26 10° NW visible
09 Oct ? 17:52:22 10° S 17:57:35 76° WSW 18:02:43 10° NNW visible
09 Oct ? 19:34:24 10° WSW 19:36:07 11° W 19:37:49 10° WNW visible
10 Oct ? 18:35:32 10° SSW 18:40:13 33° W 18:44:51 10° NNW visible
11 Oct ? 17:39:34 10° SSE 17:44:47 85° ENE 17:49:53 10° NNW visible
11 Oct ? 19:20:13 10° WSW 19:23:07 15° W 19:26:00 10° NW visible
12 Oct ? 18:22:24 10° SSW 18:27:19 42° W 18:32:09 10° NNW visible
13 Oct ? 17:26:49 10° SSE 17:31:57 68° ENE 17:36:58 10° N visible
13 Oct ? 19:06:29 10° SW 19:10:06 19° W 19:13:41 10° NW visible
14 Oct ? 18:09:21 10° S 18:14:24 54° W 18:19:21 10° NNW visible
15 Oct ? 17:14:07 10° SE 17:19:07 53° ENE 17:23:58 10° N visible
15 Oct ? 18:52:58 10° SW 18:57:06 24° W 19:01:09 10° NW visible
16 Oct ? 17:56:21 10° S 18:01:28 69° WSW 18:06:28 10° NNW visible
